TimeCDT,TemperatureF,Dew PointF,Humidity,Sea Level PressureIn,VisibilityMPH,Wind Direction,Wind SpeedMPH,Gust SpeedMPH,PrecipitationIn,Events,Conditions,WindDirDegrees,DateUTC
12:53 AM,66.0,51.1,59,29.59,10.0,SE,15.0,-,N/A,,Clear,140,2013-09-22 05:53:00
1:53 AM,64.9,50.0,58,29.58,10.0,SE,13.8,-,N/A,,Clear,130,2013-09-22 06:53:00
2:53 AM,63.0,51.1,65,29.57,10.0,SE,12.7,-,N/A,,Clear,140,2013-09-22 07:53:00
3:53 AM,63.0,51.1,65,29.56,10.0,SE,11.5,-,N/A,,Clear,140,2013-09-22 08:53:00
4:53 AM,62.1,52.0,70,29.55,10.0,SE,12.7,-,N/A,,Clear,140,2013-09-22 09:53:00
5:53 AM,62.1,52.0,70,29.56,10.0,SE,13.8,-,N/A,,Clear,140,2013-09-22 10:53:00
6:53 AM,61.0,53.1,75,29.55,10.0,SE,12.7,-,N/A,,Clear,130,2013-09-22 11:53:00
7:53 AM,60.1,53.1,78,29.56,10.0,ESE,9.2,-,N/A,,Clear,120,2013-09-22 12:53:00
8:53 AM,64.0,54.0,70,29.55,10.0,SE,13.8,-,N/A,,Clear,130,2013-09-22 13:53:00
9:53 AM,68.0,54.0,61,29.55,10.0,SE,12.7,-,N/A,,Clear,130,2013-09-22 14:53:00
10:53 AM,75.9,55.0,48,29.55,10.0,SSE,16.1,-,N/A,,Clear,150,2013-09-22 15:53:00
11:53 AM,82.0,55.9,41,29.53,10.0,SSE,18.4,25.3,N/A,,Clear,150,2013-09-22 16:53:00
12:53 PM,88.0,57.0,35,29.49,10.0,SE,21.9,-,N/A,,Clear,130,2013-09-22 17:53:00
1:53 PM,91.0,54.0,28,29.47,10.0,SE,24.2,29.9,N/A,,Clear,140,2013-09-22 18:53:00
2:53 PM,91.0,46.0,21,29.46,10.0,SSE,26.5,36.8,N/A,,Clear,150,2013-09-22 19:53:00
3:53 PM,91.9,48.9,23,29.43,10.0,SSE,29.9,35.7,N/A,,Clear,150,2013-09-22 20:53:00
4:53 PM,90.0,54.0,29,29.43,10.0,SSE,26.5,36.8,N/A,,Clear,160,2013-09-22 21:53:00
5:53 PM,87.1,53.1,31,29.44,10.0,SSE,24.2,34.5,N/A,,Clear,150,2013-09-22 22:53:00
6:53 PM,84.9,53.1,33,29.45,10.0,SE,16.1,25.3,N/A,,Clear,140,2013-09-22 23:53:00
7:53 PM,81.0,53.1,38,29.46,10.0,SE,13.8,-,N/A,,Clear,130,2013-09-23 00:53:00
8:53 PM,78.1,52.0,40,29.47,10.0,ESE,12.7,-,N/A,,Clear,120,2013-09-23 01:53:00
9:53 PM,75.9,52.0,43,29.48,10.0,SE,16.1,-,N/A,,Clear,130,2013-09-23 02:53:00
10:53 PM,75.0,52.0,44,29.47,10.0,SE,13.8,21.9,N/A,,Clear,130,2013-09-23 03:53:00
11:53 PM,73.0,52.0,48,29.49,10.0,East,6.9,-,N/A,,Clear,100,2013-09-23 04:53:00